This is the latest recevied weather packets stored in our database for station/object KC8JWT. If no packets are shown the sender has not sent any weather packets the latest 10 day(s).
| Time | Temp. | Humidity | Pressure | Rain* | Wind** | Luminosity | Snow |
|---|---|---|---|---|---|---|---|
| 1777614260 | 2.78° C | 99% | 1015.3 hPa | 0 mm | - | 0 W/m² | - |
| 1777613955 | 2.78° C | 99% | 1015.7 hPa | 0 mm | - | 0 W/m² | - |
| 1777613652 | 2.22° C | 99% | 1015.7 hPa | 0 mm | - | 0 W/m² | - |
| 1777613349 | 2.78° C | 99% | 1015.8 hPa | 0 mm | - | 0 W/m² | - |
| 1777613046 | 2.78° C | 99% | 1015.8 hPa | 0 mm | - | 0 W/m² | - |
| 1777612742 | 3.33° C | 99% | 1015.9 hPa | 0 mm | - | 0 W/m² | - |
| 1777612438 | 3.33° C | 99% | 1015.7 hPa | 0 mm | - | 0 W/m² | - |
| 1777612133 | 3.33° C | 99% | 1015.8 hPa | 0 mm | - | 0 W/m² | - |
| 1777611829 | 2.78° C | 99% | 1015.9 hPa | 0 mm | - | 0 W/m² | - |
| 1777611525 | 2.78° C | 99% | 1015.6 hPa | 0 mm | - | 0 W/m² | - |
| 1777611222 | 3.33° C | 99% | 1015.9 hPa | 0 mm | - | 0 W/m² | - |
| 1777610919 | 3.33° C | 99% | 1015.8 hPa | 0 mm | - | 0 W/m² | - |
| 1777610614 | 3.89° C | 99% | 1015.7 hPa | 0 mm | - | 0 W/m² | - |
| 1777610313 | 3.89° C | 99% | 1015.8 hPa | 0 mm | - | 0 W/m² | - |
| 1777610010 | 3.89° C | 99% | 1015.7 hPa | 0 mm | - | 0 W/m² | - |
| 1777609706 | 3.33° C | 99% | 1015.8 hPa | 0 mm | - | 0 W/m² | - |
| 1777609403 | 3.89° C | 99% | 1015.7 hPa | 0 mm | - | 0 W/m² | - |
| 1777609101 | 3.89° C | 99% | 1015.9 hPa | 0 mm | - | 0 W/m² | - |
| 1777608798 | 3.89° C | 99% | 1016 hPa | 0 mm | - | 0 W/m² | - |
| 1777608495 | 3.89° C | 99% | 1015.9 hPa | 0 mm | - | 0 W/m² | - |
| 1777608193 | 3.89° C | 99% | 1016.1 hPa | 0 mm | - | 0 W/m² | - |
| 1777607889 | 3.89° C | 99% | 1016 hPa | 0 mm | - | 0 W/m² | - |
| 1777607585 | 3.89° C | 99% | 1016 hPa | 0 mm | - | 0 W/m² | - |
| 1777607282 | 4.44° C | 99% | 1016.2 hPa | 0 mm | - | 0 W/m² | - |
| 1777606977 | 3.89° C | 99% | 1016.1 hPa | 0 mm | - | 0 W/m² | - |
* Rain latest hour (hover to see other rain measurements)
** Current wind speed in m/s (hover to see current wind gust speed)